Meath Environmental Platform

Observations for Trim Market St

Time AQI Temp °C Hum % Pres Pa CO μg/m³ H₂S μg/m³ NO μg/m³ NO₂ μg/m³ O₃ μg/m³ SO₂ μg/m³ PM1 μg/m³ PM2.5 μg/m³ PM10 μg/m³
Monday 13 July 2026
22:53 1 19.1 58 57,964 0 0 0 8.63 28.87 0 0.71 2.62 4.73
22:52 1 19.1 58 57,966 0 0 0 9.14 30.26 0 2.14 3.63 4.73
22:51 1 19.1 58 57,964 0 0 0 9.86 27.19 0 0.71 2.63 3.33
22:48 1 19.2 57 57,960 0 1.31 3.24 17.47 15.75 0 0.71 3.15 4.01
22:47 1 19.2 57 57,958 0 1.71 6.95 18.69 13.53 0 1.43 3.16 4.01
22:46 1 19.2 57 57,952 0 2.08 6.06 18.7 13.65 0 1.43 3.67 4.71
22:38 1 19.4 56 57,839 0 0 0 14.25 20.46 0 1.43 3.71 4.69
22:37 1 19.4 56 57,799 0 0 0.46 11.67 20.85 0 1.43 3.72 6.11
22:33 1 19.6 56 57,528 0 0 1.51 12.36 24.63 0 0.71 3.23 3.96
22:31 1 19.6 55 57,325 0 0 0 12.69 22.66 0 3.56 5.78 8.24
22:28 1 19.7 55 57,081 0 1.16 0 12.52 29.56 0 1.43 4.28 8.96
22:27 1 19.7 55 56,962 0 1.52 0.83 17.43 27.75 0 3.56 5.81 9.68
22:26 1 19.7 54 56,851 0 0 0 9.16 29.63 0 1.43 4.3 6.81
22:25 1 19.8 54 56,797 0 0.1 0 10.14 30.27 0 1.43 4.3 5.37
22:24 1 19.8 54 56,710 0 0 0 11.55 31.52 0 1.43 3.8 4.65
22:23 1 19.8 54 56,630 0 0 0 10.56 25.8 0 2.14 4.31 5.36
22:22 1 19.8 54 56,584 0 0 0 9.88 26.74 0 1.43 3.81 4.64
22:21 1 19.9 54 56,537 0 0 0 8.16 28.95 0 2.14 3.81 6.81
22:20 1 19.9 54 56,486 0 0 0 12.07 25.9 0 2.14 3.82 4.64
22:19 1 19.9 54 56,413 0 0 0 12.87 25.48 0 2.14 4.33 5.36